Location: Larrial
(48.2758°N, 4.5331°W)
Time: 12:00:14
(UTC+00:00)

AAUSAT CUBESAT 2 - Pass Details

Date: 29 November 2021
Orbit: 571 x 586 km, 97.5° (Epoch: 20 January)

Event Time Altitude Azimuth Distance (km) Brightness Sun altitude
Rises 05:04:32 0° 19° (NNE) 2,794 ? -26.0°
Reaches altitude 10° 05:06:47 10° 27° (NNE) 1,892 ? -25.7°
Maximum altitude 05:10:40 40° 98° (E) 852 ? -25.0°
Drops below altitude 10° 05:14:32 10° 169° (SSE) 1,884 ? -24.4°
Sets 05:16:47 0° 176° (S) 2,781 ? -24.0°
